contact:dominique.lefevre@mio.osupytheas.fr, maurice.libes@osupytheas.fr
Project:EMSO Ligure-ouest http://www.emso-fr.org/EMSO-France
Sensor Aquadopp, line 13 Serial AQD14315 
DOI : "https://doi.org/10.17882/74513; https://doi.org/10.17882/83244" 
Title:EMSO Ligure Ouest : Data ligne ALBATROSS capteur AQUADOPP - deploiement 2021
Id,Date,Profondeur,Latitude,Longitude,X_East,Y_North,Z_Up,Amplitude_X,Amplitude_Y,Amplitude_Z,Batterie,SoundSpeed,Heading,Pitch,Roll,Pressure,Temperature,Speed,Direction
, , m, degrees North, degrees East, m.s-1, m.s-1,m.s-1, 1, 1, 1, Volt, m.s-1, degree, degree, degree, dbar, degree_C, m.s-1, degree
07,2023-03-19T23:30:00,1500.0,42.79,6.0312,-0.054,0.035,0.0,53.0,55.0,51.0,12.3,1504.1,236.8,-0.4,1.5,1474.883,13.12,0.064,303.0
07,2023-03-20T00:00:00,1500.0,42.79,6.0312,-0.046,0.036,0.009,53.0,54.0,52.0,12.3,1504.1,235.2,-0.1,1.4,1474.836,13.12,0.058,308.0
07,2023-03-20T00:30:00,1500.0,42.79,6.0312,-0.047,0.02,0.015,52.0,54.0,51.0,12.3,1504.0,233.3,0.1,1.1,1474.851,13.11,0.051,293.0
07,2023-03-20T01:00:00,1500.0,42.79,6.0312,-0.052,0.029,-0.009,53.0,54.0,52.0,12.3,1504.0,236.5,-0.1,1.1,1474.84,13.11,0.059,299.1
07,2023-03-20T01:30:00,1500.0,42.79,6.0312,-0.058,0.027,0.007,51.0,53.0,53.0,12.3,1504.0,235.7,-0.5,1.4,1474.856,13.11,0.063,295.0
07,2023-03-20T02:00:00,1500.0,42.79,6.0312,-0.049,0.032,-0.001,52.0,51.0,51.0,12.3,1504.0,236.0,-0.3,1.2,1474.899,13.11,0.058,303.2
07,2023-03-20T02:30:00,1500.0,42.79,6.0312,-0.048,0.027,0.009,54.0,54.0,53.0,12.3,1504.0,233.8,0.0,1.1,1474.889,13.1,0.055,299.4
07,2023-03-20T03:00:00,1500.0,42.79,6.0312,-0.05,0.028,0.001,52.0,53.0,51.0,12.3,1504.0,235.6,-0.3,1.1,1474.899,13.1,0.057,299.3
07,2023-03-20T03:30:00,1500.0,42.79,6.0312,-0.042,0.021,-0.001,44.0,45.0,45.0,12.3,1504.0,232.9,-0.1,1.0,1474.969,13.11,0.046,296.6
07,2023-03-20T04:00:00,1500.0,42.79,6.0312,-0.053,0.024,0.0,45.0,47.0,45.0,12.3,1504.0,233.4,0.1,1.2,1474.995,13.11,0.058,294.4
07,2023-03-20T04:30:00,1500.0,42.79,6.0312,-0.045,0.025,0.006,44.0,46.0,45.0,12.3,1504.0,230.6,0.0,1.1,1475.051,13.11,0.051,299.1
07,2023-03-20T05:00:00,1500.0,42.79,6.0312,-0.053,0.027,-0.004,45.0,45.0,44.0,12.3,1504.0,231.3,-0.1,1.2,1475.046,13.11,0.059,297.0
07,2023-03-20T05:30:00,1500.0,42.79,6.0312,-0.041,0.028,-0.004,45.0,45.0,45.0,12.3,1504.0,228.3,0.1,1.3,1475.117,13.11,0.049,304.3
07,2023-03-20T06:00:00,1500.0,42.79,6.0312,-0.058,0.04,0.002,46.0,46.0,45.0,12.3,1504.0,225.6,0.0,1.1,1475.115,13.11,0.07,304.6
07,2023-03-20T06:30:00,1500.0,42.79,6.0312,-0.045,0.047,0.006,45.0,46.0,44.0,12.3,1504.0,225.6,-0.1,1.2,1475.126,13.1,0.065,316.2
07,2023-03-20T07:00:00,1500.0,42.79,6.0312,-0.046,0.053,-0.006,45.0,44.0,44.0,12.3,1504.0,227.7,0.1,1.1,1475.101,13.1,0.07,319.0
07,2023-03-20T07:30:00,1500.0,42.79,6.0312,-0.036,0.037,0.015,46.0,45.0,45.0,12.3,1504.0,230.9,-0.3,1.1,1475.127,13.11,0.051,315.8
07,2023-03-20T08:00:00,1500.0,42.79,6.0312,-0.043,0.058,0.002,44.0,46.0,44.0,12.3,1504.0,232.6,-0.1,1.1,1475.124,13.11,0.072,323.4
07,2023-03-20T08:30:00,1500.0,42.79,6.0312,-0.039,0.054,0.004,43.0,46.0,44.0,12.3,1504.0,235.6,-0.1,1.1,1475.072,13.1,0.066,324.2
07,2023-03-20T09:00:00,1500.0,42.79,6.0312,-0.035,0.042,0.007,45.0,44.0,43.0,12.3,1504.0,240.1,0.1,1.1,1475.065,13.11,0.054,320.2
07,2023-03-20T09:30:00,1500.0,42.79,6.0312,-0.039,0.042,-0.013,44.0,45.0,44.0,12.3,1504.0,241.5,0.0,1.1,1475.008,13.11,0.057,317.1
07,2023-03-20T10:00:00,1500.0,42.79,6.0312,-0.035,0.045,0.009,45.0,45.0,43.0,12.3,1504.0,241.8,-0.5,1.1,1474.996,13.1,0.057,322.1
07,2023-03-20T10:30:00,1500.0,42.79,6.0312,-0.024,0.038,-0.003,45.0,44.0,43.0,12.3,1504.0,240.7,-0.5,1.3,1474.947,13.1,0.044,327.7
07,2023-03-20T11:00:00,1500.0,42.79,6.0312,-0.031,0.047,0.014,43.0,44.0,43.0,12.3,1504.0,241.1,0.0,1.1,1474.936,13.11,0.056,326.6
07,2023-03-20T11:30:00,1500.0,42.79,6.0312,-0.046,0.045,0.012,44.0,45.0,44.0,12.3,1504.0,241.3,-0.4,1.0,1474.932,13.11,0.064,314.4
07,2023-03-20T12:00:00,1500.0,42.79,6.0312,-0.025,0.046,0.007,45.0,44.0,44.0,12.3,1504.0,242.9,-0.3,1.3,1474.868,13.1,0.052,331.5
07,2023-03-20T12:30:00,1500.0,42.79,6.0312,-0.027,0.045,0.004,45.0,44.0,43.0,12.3,1504.0,245.9,-0.2,1.0,1474.823,13.1,0.052,329.0
07,2023-03-20T13:00:00,1500.0,42.79,6.0312,-0.012,0.038,0.007,44.0,45.0,43.0,12.3,1504.0,240.8,-0.3,1.0,1474.82,13.1,0.039,342.5
07,2023-03-20T13:30:00,1500.0,42.79,6.0312,-0.013,0.032,0.0,44.0,44.0,44.0,12.3,1504.0,241.9,-0.3,1.2,1474.8,13.1,0.034,337.9
07,2023-03-20T14:00:00,1500.0,42.79,6.0312,-0.026,0.035,0.0,45.0,46.0,43.0,12.3,1504.0,244.9,-0.3,1.0,1474.779,13.11,0.043,323.4
07,2023-03-20T14:30:00,1500.0,42.79,6.0312,-0.02,0.028,0.001,45.0,45.0,43.0,12.3,1504.0,246.0,-0.3,1.0,1474.79,13.11,0.034,324.5
07,2023-03-20T15:00:00,1500.0,42.79,6.0312,-0.022,0.04,0.02,45.0,46.0,46.0,12.3,1504.0,247.0,0.0,1.1,1474.801,13.11,0.045,331.2
07,2023-03-20T15:30:00,1500.0,42.79,6.0312,-0.027,0.044,0.016,45.0,45.0,46.0,12.3,1504.0,247.8,-0.5,0.8,1474.857,13.1,0.051,328.5
07,2023-03-20T16:00:00,1500.0,42.79,6.0312,-0.016,0.027,-0.003,44.0,46.0,45.0,12.3,1504.0,247.8,-0.2,1.0,1474.858,13.1,0.031,329.3
07,2023-03-20T16:30:00,1500.0,42.79,6.0312,-0.016,0.025,0.008,45.0,46.0,45.0,12.3,1504.0,247.2,0.2,0.9,1474.897,13.1,0.029,327.4
07,2023-03-20T17:00:00,1500.0,42.79,6.0312,-0.032,0.023,0.014,46.0,45.0,45.0,12.3,1504.0,248.3,-0.1,1.3,1474.917,13.1,0.039,305.7
07,2023-03-20T17:30:00,1500.0,42.79,6.0312,-0.014,0.018,0.011,46.0,44.0,46.0,12.3,1504.0,249.1,0.2,0.9,1474.912,13.1,0.022,322.1
07,2023-03-20T18:00:00,1500.0,42.79,6.0312,-0.034,0.02,0.004,45.0,45.0,45.0,12.3,1504.0,250.6,0.2,1.0,1474.932,13.1,0.039,300.5
07,2023-03-20T18:30:00,1500.0,42.79,6.0312,-0.041,0.029,0.0,45.0,48.0,44.0,12.3,1504.0,245.7,0.1,0.8,1474.937,13.1,0.05,305.3
07,2023-03-20T19:00:00,1500.0,42.79,6.0312,-0.028,0.025,-0.011,44.0,45.0,44.0,12.3,1504.0,243.3,0.2,0.8,1474.914,13.1,0.037,311.8
07,2023-03-20T19:30:00,1500.0,42.79,6.0312,-0.021,0.018,0.0,44.0,45.0,42.0,12.3,1504.0,238.7,0.0,1.1,1474.928,13.1,0.027,310.6
07,2023-03-20T20:00:00,1500.0,42.79,6.0312,-0.021,0.034,-0.018,46.0,45.0,44.0,12.3,1504.0,235.5,-0.4,0.8,1474.928,13.1,0.039,328.3
07,2023-03-20T20:30:00,1500.0,42.79,6.0312,-0.028,0.027,-0.019,45.0,45.0,43.0,12.3,1504.0,232.1,0.1,0.9,1474.871,13.11,0.038,314.0
07,2023-03-20T21:00:00,1500.0,42.79,6.0312,-0.037,0.023,0.001,43.0,43.0,43.0,12.3,1504.0,229.1,-0.3,0.9,1474.896,13.11,0.043,301.9
07,2023-03-20T21:30:00,1500.0,42.79,6.0312,-0.028,0.026,0.006,44.0,44.0,47.0,12.3,1504.0,227.5,0.1,0.9,1474.877,13.11,0.038,312.9
07,2023-03-20T22:00:00,1500.0,42.79,6.0312,-0.027,0.021,0.004,44.0,45.0,41.0,12.3,1504.0,226.8,0.0,1.0,1474.826,13.11,0.034,307.9
07,2023-03-20T22:30:00,1500.0,42.79,6.0312,-0.041,0.031,0.006,44.0,45.0,43.0,12.3,1504.0,228.2,0.3,1.0,1474.809,13.11,0.051,307.1
07,2023-03-20T23:00:00,1500.0,42.79,6.0312,-0.035,0.042,-0.011,45.0,43.0,43.0,12.3,1504.0,228.7,-0.3,0.9,1474.794,13.11,0.054,320.2
